TimeEST,TemperatureF,Dew PointF,Humidity,Sea Level PressureIn,VisibilityMPH,Wind Direction,Wind SpeedMPH,Gust SpeedMPH,PrecipitationIn,Events,Conditions,WindDirDegrees,DateUTC
12:53 AM,78.1,70.0,76,29.91,10.0,NW,9.2,-,N/A,,Clear,320,2013-11-03 04:53:00
1:53 AM,77.0,70.0,79,29.90,10.0,North,10.4,-,N/A,,Partly Cloudy,350,2013-11-03 05:53:00
1:53 AM,75.9,69.1,79,29.90,10.0,NNE,11.5,-,N/A,,Mostly Cloudy,20,2013-11-03 06:53:00
2:53 AM,75.0,66.0,73,29.90,10.0,North,12.7,-,N/A,,Overcast,10,2013-11-03 07:53:00
3:53 AM,73.9,66.9,79,29.90,10.0,North,10.4,19.6,N/A,,Overcast,10,2013-11-03 08:53:00
4:53 AM,75.0,61.0,62,29.90,10.0,North,12.7,19.6,N/A,,Overcast,10,2013-11-03 09:53:00
5:53 AM,73.9,57.9,57,29.91,10.0,NNE,12.7,21.9,N/A,,Overcast,30,2013-11-03 10:53:00
6:53 AM,73.0,57.9,59,29.94,10.0,NNE,12.7,-,N/A,,Overcast,20,2013-11-03 11:53:00
7:53 AM,73.0,63.0,71,29.95,10.0,NNE,10.4,19.6,N/A,,Overcast,20,2013-11-03 12:53:00
8:53 AM,73.9,64.0,71,29.97,10.0,NNE,11.5,20.7,N/A,,Overcast,20,2013-11-03 13:53:00
9:53 AM,75.0,63.0,66,29.98,10.0,NNE,15.0,-,N/A,,Mostly Cloudy,20,2013-11-03 14:53:00
10:53 AM,80.1,64.0,58,29.98,10.0,NNE,15.0,21.9,N/A,,Scattered Clouds,30,2013-11-03 15:53:00
11:53 AM,78.1,63.0,60,29.97,10.0,NNE,13.8,21.9,N/A,,Mostly Cloudy,30,2013-11-03 16:53:00
12:53 PM,82.0,64.0,54,29.95,10.0,NNE,13.8,24.2,N/A,,Partly Cloudy,30,2013-11-03 17:53:00
1:53 PM,82.0,64.0,54,29.93,10.0,NE,15.0,-,N/A,,Clear,40,2013-11-03 18:53:00
2:53 PM,81.0,64.9,58,29.92,10.0,NE,11.5,-,N/A,,Overcast,40,2013-11-03 19:53:00
3:53 PM,82.0,64.9,56,29.91,10.0,ENE,17.3,-,N/A,,Overcast,60,2013-11-03 20:53:00
4:53 PM,81.0,64.9,58,29.92,10.0,ENE,16.1,-,N/A,,Overcast,60,2013-11-03 21:53:00
5:53 PM,80.1,64.9,60,29.94,10.0,ENE,16.1,-,N/A,,Partly Cloudy,60,2013-11-03 22:53:00
6:53 PM,79.0,64.9,62,29.96,10.0,NE,17.3,25.3,N/A,,Overcast,40,2013-11-03 23:53:00
7:53 PM,79.0,64.9,62,29.98,10.0,NE,17.3,-,N/A,,Overcast,40,2013-11-04 00:53:00
8:53 PM,77.0,64.9,66,30.00,10.0,NNE,15.0,-,N/A,,Overcast,20,2013-11-04 01:53:00
9:53 PM,75.9,62.1,62,29.99,10.0,NNE,17.3,26.5,N/A,,Scattered Clouds,30,2013-11-04 02:53:00
10:53 PM,75.0,62.1,64,29.99,10.0,NNE,17.3,24.2,N/A,,Overcast,20,2013-11-04 03:53:00